Time,TemperatureF,DewpointF,PressureIn,WindDirection,WindDirectionDegrees,WindSpeedMPH,WindSpeedGustMPH,Humidity,HourlyPrecipIn,Conditions,Clouds,dailyrainin,SoftwareType,DateUTC
2013-05-26 00:05:00,46.2,31.8,29.93,SSW,202,0.0,0.0,57,0.00,,,-99.99,VWS V12.07,2013-05-26 05:05:00,
2013-05-26 00:10:00,46.2,31.8,29.93,SSW,202,0.0,0.0,57,0.00,,,-99.99,VWS V12.07,2013-05-26 05:10:00,
2013-05-26 00:15:00,46.0,31.6,29.93,SSW,202,0.0,0.0,57,0.00,,,-99.99,VWS V12.07,2013-05-26 05:15:00,
2013-05-26 00:20:00,45.6,31.3,29.92,SSW,202,0.0,0.0,57,0.00,,,-99.99,VWS V12.07,2013-05-26 05:20:00,
2013-05-26 00:25:00,45.6,31.7,29.92,SSW,202,0.0,0.0,58,0.00,,,-99.99,VWS V12.07,2013-05-26 05:25:00,
2013-05-26 00:30:00,45.1,31.2,29.91,SSW,202,0.0,0.0,58,0.00,,,-99.99,VWS V12.07,2013-05-26 05:30:00,
2013-05-26 00:35:00,45.1,31.2,29.92,SSW,202,0.0,0.0,58,0.00,,,-99.99,VWS V12.07,2013-05-26 05:35:00,
2013-05-26 00:40:00,44.9,31.5,29.92,SSW,202,0.0,0.0,59,0.00,,,-99.99,VWS V12.07,2013-05-26 05:40:00,
2013-05-26 00:45:00,44.4,31.0,29.92,SSW,202,0.0,0.0,59,0.00,,,-99.99,VWS V12.07,2013-05-26 05:45:00,
2013-05-26 00:50:00,44.4,31.0,29.92,SSW,202,0.0,0.0,59,0.00,,,-99.99,VWS V12.07,2013-05-26 05:50:00,
2013-05-26 00:55:00,44.0,30.6,29.92,SSW,202,0.0,0.0,59,0.00,,,-99.99,VWS V12.07,2013-05-26 05:55:00,
2013-05-26 01:00:00,43.5,30.5,29.92,SSW,202,0.0,0.0,60,0.00,,,-99.99,VWS V12.07,2013-05-26 06:00:00,
2013-05-26 01:05:00,43.3,30.4,29.93,SSW,202,0.0,0.0,60,0.00,,,-99.99,VWS V12.07,2013-05-26 06:05:00,
2013-05-26 01:10:00,43.1,30.2,29.93,SSW,202,0.0,0.0,60,0.00,,,-99.99,VWS V12.07,2013-05-26 06:10:00,
2013-05-26 01:15:00,42.9,30.4,29.92,SSW,202,0.0,0.0,61,0.00,,,-99.99,VWS V12.07,2013-05-26 06:15:00,
2013-05-26 01:20:00,42.4,29.9,29.92,SSW,202,0.0,0.0,61,0.00,,,-99.99,VWS V12.07,2013-05-26 06:20:00,
2013-05-26 01:25:00,42.0,29.9,29.92,SSW,202,0.0,0.0,62,0.00,,,-99.99,VWS V12.07,2013-05-26 06:25:00,
2013-05-26 01:30:00,41.7,29.7,29.91,SSW,202,0.0,0.0,62,0.00,,,-99.99,VWS V12.07,2013-05-26 06:30:00,
2013-05-26 01:35:00,41.5,29.5,29.91,SSW,202,0.0,0.0,62,0.00,,,-99.99,VWS V12.07,2013-05-26 06:35:00,
2013-05-26 01:40:00,41.5,29.5,29.91,SSW,202,0.0,0.0,62,0.00,,,-99.99,VWS V12.07,2013-05-26 06:40:00,
2013-05-26 01:45:00,41.3,29.3,29.91,SSW,202,0.0,0.0,62,0.00,,,-99.99,VWS V12.07,2013-05-26 06:45:00,
2013-05-26 01:50:00,41.3,29.3,29.92,SSW,202,0.0,0.0,62,0.00,,,-99.99,VWS V12.07,2013-05-26 06:50:00,
2013-05-26 01:55:00,41.1,29.1,29.91,SSW,202,0.0,0.0,62,0.00,,,-99.99,VWS V12.07,2013-05-26 06:55:00,
2013-05-26 02:00:00,41.1,29.1,29.91,SSW,202,0.0,0.0,62,0.00,,,-99.99,VWS V12.07,2013-05-26 07:00:00,
2013-05-26 02:10:00,41.1,29.1,29.91,SSW,202,0.0,0.0,62,0.00,,,-99.99,VWS V12.07,2013-05-26 07:10:00,
2013-05-26 02:15:00,41.1,29.5,29.91,SSW,202,0.0,0.0,63,0.00,,,-99.99,VWS V12.07,2013-05-26 07:15:00,
2013-05-26 02:20:00,41.0,29.4,29.91,SSW,202,0.0,0.0,63,0.00,,,-99.99,VWS V12.07,2013-05-26 07:20:00,
2013-05-26 02:25:00,40.8,29.2,29.90,SSW,202,0.0,0.0,63,0.00,,,-99.99,VWS V12.07,2013-05-26 07:25:00,
2013-05-26 02:30:00,40.6,29.4,29.91,SSW,202,0.0,0.0,64,0.00,,,-99.99,VWS V12.07,2013-05-26 07:30:00,
2013-05-26 02:35:00,40.4,29.2,29.90,SSW,202,0.0,0.0,64,0.00,,,-99.99,VWS V12.07,2013-05-26 07:35:00,
2013-05-26 02:40:00,40.1,28.9,29.90,SSW,202,0.0,0.0,64,0.00,,,-99.99,VWS V12.07,2013-05-26 07:40:00,
2013-05-26 02:45:00,39.9,28.7,29.90,SSW,202,0.0,0.0,64,0.00,,,-99.99,VWS V12.07,2013-05-26 07:45:00,
2013-05-26 02:50:00,39.7,28.5,29.91,SSW,202,0.0,0.0,64,0.00,,,-99.99,VWS V12.07,2013-05-26 07:50:00,
2013-05-26 02:55:00,39.5,28.7,29.91,SSW,202,0.0,0.0,65,0.00,,,-99.99,VWS V12.07,2013-05-26 07:55:00,
2013-05-26 03:00:00,39.3,28.5,29.91,SSW,202,0.0,0.0,65,0.00,,,-99.99,VWS V12.07,2013-05-26 08:00:00,
2013-05-26 03:05:00,39.0,28.6,29.91,SSW,202,0.0,0.0,66,0.00,,,-99.99,VWS V12.07,2013-05-26 08:05:00,
2013-05-26 03:10:00,39.0,28.6,29.91,SSW,202,0.0,0.0,66,0.00,,,-99.99,VWS V12.07,2013-05-26 08:10:00,
2013-05-26 03:15:00,38.4,28.0,29.91,SSW,202,0.0,0.0,66,0.00,,,-99.99,VWS V12.07,2013-05-26 08:15:00,
2013-05-26 03:20:00,38.4,28.0,29.91,SSW,202,0.0,0.0,66,0.00,,,-99.99,VWS V12.07,2013-05-26 08:20:00,
2013-05-26 03:25:00,38.1,28.1,29.91,SSW,202,0.0,0.0,67,0.00,,,-99.99,VWS V12.07,2013-05-26 08:25:00,
2013-05-26 03:30:00,37.9,27.9,29.91,SSW,202,0.0,0.0,67,0.00,,,-99.99,VWS V12.07,2013-05-26 08:30:00,
2013-05-26 03:35:00,37.7,27.8,29.91,SSW,202,0.0,0.0,67,0.00,,,-99.99,VWS V12.07,2013-05-26 08:35:00,
2013-05-26 03:40:00,37.4,27.8,29.91,SSW,202,0.0,0.0,68,0.00,,,-99.99,VWS V12.07,2013-05-26 08:40:00,
2013-05-26 03:45:00,37.2,27.6,29.91,SSW,202,0.0,0.0,68,0.00,,,-99.99,VWS V12.07,2013-05-26 08:45:00,
2013-05-26 03:50:00,37.0,27.4,29.91,SSW,202,0.0,0.0,68,0.00,,,-99.99,VWS V12.07,2013-05-26 08:50:00,
2013-05-26 03:55:00,36.6,27.0,29.91,SSW,202,0.0,0.0,68,0.00,,,-99.99,VWS V12.07,2013-05-26 08:55:00,
2013-05-26 04:00:00,36.5,27.0,29.91,SSW,202,0.0,0.0,68,0.00,,,-99.99,VWS V12.07,2013-05-26 09:00:00,
2013-05-26 04:05:00,36.3,27.1,29.91,SSW,202,0.0,0.0,69,0.00,,,-99.99,VWS V12.07,2013-05-26 09:05:00,
2013-05-26 04:10:00,36.1,26.9,29.91,SSW,202,0.0,0.0,69,0.00,,,-99.99,VWS V12.07,2013-05-26 09:10:00,
2013-05-26 04:15:00,35.9,26.7,29.91,SSW,202,0.0,0.0,69,0.00,,,-99.99,VWS V12.07,2013-05-26 09:15:00,
2013-05-26 04:20:00,35.9,26.7,29.90,SSW,202,0.0,0.0,69,0.00,,,-99.99,VWS V12.07,2013-05-26 09:20:00,
2013-05-26 04:25:00,35.7,26.9,29.90,SSW,202,0.0,0.0,70,0.00,,,-99.99,VWS V12.07,2013-05-26 09:25:00,
2013-05-26 04:30:00,35.7,26.9,29.91,SSW,202,0.0,0.0,70,0.00,,,-99.99,VWS V12.07,2013-05-26 09:30:00,
2013-05-26 04:35:00,35.7,26.9,29.91,SSW,202,0.0,0.0,70,0.00,,,-99.99,VWS V12.07,2013-05-26 09:35:00,
2013-05-26 04:40:00,35.7,26.9,29.91,SSW,202,0.0,0.0,70,0.00,,,-99.99,VWS V12.07,2013-05-26 09:40:00,
2013-05-26 04:45:00,35.6,26.8,29.91,SSW,202,0.0,0.0,70,0.00,,,-99.99,VWS V12.07,2013-05-26 09:45:00,
2013-05-26 04:50:00,35.4,26.6,29.91,SSW,202,0.0,0.0,70,0.00,,,-99.99,VWS V12.07,2013-05-26 09:50:00,
2013-05-26 04:55:00,35.4,26.6,29.90,SSW,202,0.0,0.0,70,0.00,,,-99.99,VWS V12.07,2013-05-26 09:55:00,
2013-05-26 05:00:00,35.4,27.0,29.91,SSW,202,0.0,0.0,71,0.00,,,-99.99,VWS V12.07,2013-05-26 10:00:00,
2013-05-26 05:05:00,35.2,26.8,29.91,SSW,202,0.0,0.0,71,0.00,,,-99.99,VWS V12.07,2013-05-26 10:05:00,
2013-05-26 05:10:00,35.2,26.8,29.91,SSW,202,0.0,0.0,71,0.00,,,-99.99,VWS V12.07,2013-05-26 10:10:00,
2013-05-26 05:15:00,35.2,26.8,29.91,SSW,202,0.0,0.0,71,0.00,,,-99.99,VWS V12.07,2013-05-26 10:15:00,
2013-05-26 05:20:00,34.8,26.4,29.91,SSW,202,0.0,0.0,71,0.00,,,-99.99,VWS V12.07,2013-05-26 10:20:00,
2013-05-26 05:25:00,34.8,26.4,29.92,SSW,202,0.0,0.0,71,0.00,,,-99.99,VWS V12.07,2013-05-26 10:25:00,
2013-05-26 05:30:00,34.7,26.6,29.92,SSW,202,0.0,0.0,72,0.00,,,-99.99,VWS V12.07,2013-05-26 10:30:00,
2013-05-26 05:35:00,34.5,26.4,29.93,SSW,202,0.0,0.0,72,0.00,,,-99.99,VWS V12.07,2013-05-26 10:35:00,
2013-05-26 05:40:00,34.3,26.2,29.93,SSW,202,0.0,0.0,72,0.00,,,-99.99,VWS V12.07,2013-05-26 10:40:00,
2013-05-26 05:45:00,34.3,26.2,29.93,SSW,202,0.0,0.0,72,0.00,,,-99.99,VWS V12.07,2013-05-26 10:45:00,
2013-05-26 05:50:00,34.3,26.6,29.93,SSW,202,0.0,0.0,73,0.00,,,-99.99,VWS V12.07,2013-05-26 10:50:00,
2013-05-26 05:55:00,34.7,27.0,29.93,SSW,202,0.0,0.0,73,0.00,,,-99.99,VWS V12.07,2013-05-26 10:55:00,
2013-05-26 06:00:00,35.2,27.8,29.92,SSW,202,0.0,0.0,74,0.00,,,-99.99,VWS V12.07,2013-05-26 11:00:00,
2013-05-26 06:05:00,35.9,28.4,29.92,SSW,202,0.0,0.0,74,0.00,,,-99.99,VWS V12.07,2013-05-26 11:05:00,
2013-05-26 06:10:00,36.8,29.6,29.92,SSW,202,0.0,0.0,75,0.00,,,-99.99,VWS V12.07,2013-05-26 11:10:00,
2013-05-26 06:15:00,38.4,31.5,29.93,SSW,202,0.0,0.0,76,0.00,,,-99.99,VWS V12.07,2013-05-26 11:15:00,
2013-05-26 06:20:00,39.7,32.8,29.93,SSW,202,0.0,0.0,76,0.00,,,-99.99,VWS V12.07,2013-05-26 11:20:00,
2013-05-26 06:25:00,41.0,34.3,29.94,SSW,202,0.0,0.0,77,0.00,,,-99.99,VWS V12.07,2013-05-26 11:25:00,
2013-05-26 06:30:00,42.4,35.4,29.94,SSW,202,0.0,0.0,76,0.00,,,-99.99,VWS V12.07,2013-05-26 11:30:00,
2013-05-26 06:35:00,42.9,35.9,29.94,SSW,202,0.0,0.0,76,0.00,,,-99.99,VWS V12.07,2013-05-26 11:35:00,
2013-05-26 06:40:00,43.5,36.1,29.94,SSW,202,0.0,0.0,75,0.00,,,-99.99,VWS V12.07,2013-05-26 11:40:00,
2013-05-26 06:45:00,44.2,36.8,29.94,SSW,202,0.0,0.0,75,0.00,,,-99.99,VWS V12.07,2013-05-26 11:45:00,
2013-05-26 06:50:00,44.4,36.7,29.94,SSW,202,0.0,0.0,74,0.00,,,-99.99,VWS V12.07,2013-05-26 11:50:00,
2013-05-26 06:55:00,44.9,37.1,29.94,SSW,202,0.0,0.0,74,0.00,,,-99.99,VWS V12.07,2013-05-26 11:55:00,
2013-05-26 07:00:00,45.5,37.4,29.94,SSW,202,0.0,0.0,73,0.00,,,-99.99,VWS V12.07,2013-05-26 12:00:00,
2013-05-26 07:05:00,46.0,37.8,29.94,SSW,202,0.0,0.0,73,0.00,,,-99.99,VWS V12.07,2013-05-26 12:05:00,
2013-05-26 07:10:00,46.5,38.0,29.94,SSW,202,0.0,0.0,72,0.00,,,-99.99,VWS V12.07,2013-05-26 12:10:00,
2013-05-26 07:15:00,47.6,38.7,29.94,NE,45,5.8,5.8,71,0.00,,,-99.99,VWS V12.07,2013-05-26 12:15:00,
2013-05-26 07:20:00,48.0,38.7,29.93,NE,45,0.0,5.8,70,0.00,,,-99.99,VWS V12.07,2013-05-26 12:20:00,
2013-05-26 07:25:00,48.5,38.8,29.94,NE,45,0.0,5.8,69,0.00,,,-99.99,VWS V12.07,2013-05-26 12:25:00,
2013-05-26 07:30:00,49.1,39.0,29.93,NE,45,0.0,5.8,68,0.00,,,-99.99,VWS V12.07,2013-05-26 12:30:00,
2013-05-26 07:35:00,49.6,39.1,29.93,NE,45,0.8,0.8,67,0.00,,,-99.99,VWS V12.07,2013-05-26 12:35:00,
2013-05-26 07:40:00,50.1,39.2,29.93,NE,45,0.0,2.0,66,0.00,,,-99.99,VWS V12.07,2013-05-26 12:40:00,
2013-05-26 07:45:00,50.5,39.2,29.93,NE,45,0.0,2.0,65,0.00,,,-99.99,VWS V12.07,2013-05-26 12:45:00,
2013-05-26 07:50:00,50.9,39.2,29.94,NE,45,0.0,0.0,64,0.00,,,-99.99,VWS V12.07,2013-05-26 12:50:00,
2013-05-26 07:55:00,51.4,39.2,29.94,NE,45,0.0,0.0,63,0.00,,,-99.99,VWS V12.07,2013-05-26 12:55:00,
2013-05-26 08:00:00,51.6,39.4,29.94,NE,45,0.0,0.0,63,0.00,,,-99.99,VWS V12.07,2013-05-26 13:00:00,
2013-05-26 08:05:00,51.9,39.3,29.94,NE,45,0.0,0.0,62,0.00,,,-99.99,VWS V12.07,2013-05-26 13:05:00,
2013-05-26 08:10:00,52.3,39.7,29.94,NE,45,0.0,0.0,62,0.00,,,-99.99,VWS V12.07,2013-05-26 13:10:00,
2013-05-26 08:15:00,52.5,39.5,29.94,NE,45,0.0,0.0,61,0.00,,,-99.99,VWS V12.07,2013-05-26 13:15:00,
2013-05-26 08:20:00,52.8,39.3,29.93,NE,45,0.0,0.0,60,0.00,,,-99.99,VWS V12.07,2013-05-26 13:20:00,
2013-05-26 08:25:00,53.2,39.7,29.93,NE,45,0.0,0.0,60,0.00,,,-99.99,VWS V12.07,2013-05-26 13:25:00,
2013-05-26 08:30:00,53.6,39.2,29.93,East,90,0.0,0.0,58,0.00,,,-99.99,VWS V12.07,2013-05-26 13:30:00,
2013-05-26 08:35:00,53.7,39.7,29.92,ENE,68,0.0,0.0,59,0.00,,,-99.99,VWS V12.07,2013-05-26 13:35:00,
2013-05-26 08:40:00,54.1,39.7,29.92,ESE,112,0.0,0.0,58,0.00,,,-99.99,VWS V12.07,2013-05-26 13:40:00,
2013-05-26 08:45:00,54.5,39.6,29.91,ENE,68,0.0,0.0,57,0.00,,,-99.99,VWS V12.07,2013-05-26 13:45:00,
2013-05-26 08:50:00,54.6,39.7,29.92,ENE,68,0.0,0.0,57,0.00,,,-99.99,VWS V12.07,2013-05-26 13:50:00,
2013-05-26 08:55:00,55.0,39.6,29.92,NE,45,0.0,2.4,56,0.00,,,-99.99,VWS V12.07,2013-05-26 13:55:00,
2013-05-26 09:00:00,55.5,39.6,29.92,SSE,158,0.0,2.4,55,0.00,,,-99.99,VWS V12.07,2013-05-26 14:00:00,
2013-05-26 09:05:00,55.9,40.0,29.93,SSE,158,0.0,0.0,55,0.00,,,-99.99,VWS V12.07,2013-05-26 14:05:00,
2013-05-26 09:10:00,56.1,39.7,29.92,NE,45,0.0,0.0,54,0.00,,,-99.99,VWS V12.07,2013-05-26 14:10:00,
2013-05-26 09:15:00,56.4,40.0,29.93,NE,45,0.0,0.0,54,0.00,,,-99.99,VWS V12.07,2013-05-26 14:15:00,
2013-05-26 09:20:00,56.8,40.3,29.92,SSE,158,0.0,0.0,54,0.00,,,-99.99,VWS V12.07,2013-05-26 14:20:00,
2013-05-26 09:25:00,56.8,39.9,29.92,South,180,0.0,0.0,53,0.00,,,-99.99,VWS V12.07,2013-05-26 14:25:00,
2013-05-26 09:30:00,57.0,39.6,29.93,SW,225,0.0,0.0,52,0.00,,,-99.99,VWS V12.07,2013-05-26 14:30:00,
2013-05-26 09:35:00,57.0,39.6,29.93,SSW,202,0.0,0.0,52,0.00,,,-99.99,VWS V12.07,2013-05-26 14:35:00,
2013-05-26 09:40:00,57.3,39.8,29.92,SSW,202,0.0,0.0,52,0.00,,,-99.99,VWS V12.07,2013-05-26 14:40:00,
2013-05-26 09:45:00,57.3,39.3,29.93,SW,225,0.0,0.0,51,0.00,,,-99.99,VWS V12.07,2013-05-26 14:45:00,
2013-05-26 09:50:00,57.5,39.5,29.92,ENE,68,0.0,0.0,51,0.00,,,-99.99,VWS V12.07,2013-05-26 14:50:00,
2013-05-26 09:55:00,57.5,39.5,29.92,South,180,0.0,0.0,51,0.00,,,-99.99,VWS V12.07,2013-05-26 14:55:00,
2013-05-26 10:00:00,57.9,39.4,29.92,SSE,158,0.0,0.0,50,0.00,,,-99.99,VWS V12.07,2013-05-26 15:00:00,
2013-05-26 10:05:00,58.1,39.6,29.92,ENE,68,0.0,0.0,50,0.00,,,-99.99,VWS V12.07,2013-05-26 15:05:00,
2013-05-26 10:10:00,58.2,39.7,29.92,SSE,158,0.0,0.0,50,0.00,,,-99.99,VWS V12.07,2013-05-26 15:10:00,
2013-05-26 10:15:00,58.6,40.0,29.91,ENE,68,0.0,0.0,50,0.00,,,-99.99,VWS V12.07,2013-05-26 15:15:00,
2013-05-26 10:20:00,58.8,39.7,29.92,East,90,0.0,0.0,49,0.00,,,-99.99,VWS V12.07,2013-05-26 15:20:00,
2013-05-26 10:25:00,58.8,39.7,29.92,ENE,68,0.0,0.0,49,0.00,,,-99.99,VWS V12.07,2013-05-26 15:25:00,
2013-05-26 10:30:00,58.8,39.7,29.91,NE,45,0.0,2.0,49,0.00,,,-99.99,VWS V12.07,2013-05-26 15:30:00,
2013-05-26 10:35:00,58.8,39.7,29.91,ENE,68,0.0,0.0,49,0.00,,,-99.99,VWS V12.07,2013-05-26 15:35:00,
2013-05-26 10:40:00,59.1,40.0,29.91,NE,45,5.8,5.8,49,0.00,,,-99.99,VWS V12.07,2013-05-26 15:40:00,
2013-05-26 10:45:00,59.5,39.8,29.92,NE,45,2.0,5.8,48,0.00,,,-99.99,VWS V12.07,2013-05-26 15:45:00,
2013-05-26 10:50:00,59.7,40.0,29.92,NE,45,6.4,6.4,48,0.00,,,-99.99,VWS V12.07,2013-05-26 15:50:00,
2013-05-26 10:55:00,59.9,40.2,29.92,NE,45,0.0,6.4,48,0.00,,,-99.99,VWS V12.07,2013-05-26 15:55:00,
2013-05-26 11:00:00,60.0,40.3,29.92,South,180,0.0,6.4,48,0.00,,,-99.99,VWS V12.07,2013-05-26 16:00:00,
2013-05-26 11:05:00,60.0,40.3,29.91,NE,45,3.1,3.1,48,0.00,,,-99.99,VWS V12.07,2013-05-26 16:05:00,
2013-05-26 11:10:00,60.0,39.7,29.91,NE,45,0.0,3.1,47,0.00,,,-99.99,VWS V12.07,2013-05-26 16:10:00,
2013-05-26 11:15:00,59.9,39.1,29.91,NE,45,0.0,3.1,46,0.00,,,-99.99,VWS V12.07,2013-05-26 16:15:00,
2013-05-26 11:20:00,59.9,39.1,29.91,NE,45,0.0,0.0,46,0.00,,,-99.99,VWS V12.07,2013-05-26 16:20:00,
2013-05-26 11:25:00,59.7,38.9,29.91,NE,45,0.0,0.0,46,0.00,,,-99.99,VWS V12.07,2013-05-26 16:25:00,
2013-05-26 11:30:00,60.0,39.2,29.90,NE,45,0.0,0.0,46,0.00,,,-99.99,VWS V12.07,2013-05-26 16:30:00,
2013-05-26 11:35:00,60.0,39.2,29.90,SSE,158,0.0,0.0,46,0.00,,,-99.99,VWS V12.07,2013-05-26 16:35:00,
2013-05-26 11:40:00,60.4,39.5,29.90,NE,45,0.0,0.0,46,0.00,,,-99.99,VWS V12.07,2013-05-26 16:40:00,
2013-05-26 11:45:00,60.9,40.0,29.90,NE,45,0.0,0.0,46,0.00,,,-99.99,VWS V12.07,2013-05-26 16:45:00,
2013-05-26 11:50:00,61.3,39.8,29.90,NE,45,0.0,0.0,45,0.00,,,-99.99,VWS V12.07,2013-05-26 16:50:00,
2013-05-26 11:55:00,61.7,40.2,29.90,SSW,202,0.0,4.4,45,0.00,,,-99.99,VWS V12.07,2013-05-26 16:55:00,
2013-05-26 12:00:00,61.8,39.7,29.90,ENE,68,0.0,4.4,44,0.00,,,-99.99,VWS V12.07,2013-05-26 17:00:00,
2013-05-26 12:05:00,61.8,39.7,29.90,NE,45,3.3,3.3,44,0.00,,,-99.99,VWS V12.07,2013-05-26 17:05:00,
2013-05-26 12:10:00,62.0,39.9,29.90,West,270,0.0,3.3,44,0.00,,,-99.99,VWS V12.07,2013-05-26 17:10:00,
2013-05-26 12:15:00,62.4,40.2,29.90,NNE,22,0.0,3.3,44,0.00,,,-99.99,VWS V12.07,2013-05-26 17:15:00,
2013-05-26 12:20:00,62.4,39.6,29.90,NE,45,0.0,4.4,43,0.00,,,-99.99,VWS V12.07,2013-05-26 17:20:00,
2013-05-26 12:25:00,62.7,39.9,29.90,WNW,292,0.0,4.4,43,0.00,,,-99.99,VWS V12.07,2013-05-26 17:25:00,
2013-05-26 12:30:00,63.1,39.7,29.90,ENE,68,0.0,4.4,42,0.00,,,-99.99,VWS V12.07,2013-05-26 17:30:00,
2013-05-26 12:40:00,63.1,39.0,29.89,South,180,0.0,7.1,41,0.00,,,-99.99,VWS V12.07,2013-05-26 17:40:00,
2013-05-26 12:45:00,63.3,39.2,29.89,NE,45,6.0,7.1,41,0.00,,,-99.99,VWS V12.07,2013-05-26 17:45:00,
2013-05-26 12:50:00,63.1,39.0,29.89,NE,45,0.0,6.0,41,0.00,,,-99.99,VWS V12.07,2013-05-26 17:50:00,
2013-05-26 12:55:00,63.3,39.2,29.88,SSW,202,0.0,6.0,41,0.00,,,-99.99,VWS V12.07,2013-05-26 17:55:00,
2013-05-26 13:00:00,63.6,38.9,29.88,NE,45,0.0,6.0,40,0.00,,,-99.99,VWS V12.07,2013-05-26 18:00:00,
2013-05-26 13:05:00,63.8,39.0,29.88,NE,45,0.0,0.0,40,0.00,,,-99.99,VWS V12.07,2013-05-26 18:05:00,
2013-05-26 13:10:00,64.0,39.2,29.87,ENE,68,0.0,0.0,40,0.00,,,-99.99,VWS V12.07,2013-05-26 18:10:00,
2013-05-26 13:15:00,64.2,38.8,29.87,ENE,68,0.0,0.0,39,0.00,,,-99.99,VWS V12.07,2013-05-26 18:15:00,
2013-05-26 13:20:00,64.5,39.0,29.87,ENE,68,0.0,7.1,39,0.00,,,-99.99,VWS V12.07,2013-05-26 18:20:00,
2013-05-26 13:25:00,64.5,39.0,29.87,NNE,22,0.0,7.1,39,0.00,,,-99.99,VWS V12.07,2013-05-26 18:25:00,
2013-05-26 13:30:00,64.7,39.2,29.87,NE,45,0.0,7.1,39,0.00,,,-99.99,VWS V12.07,2013-05-26 18:30:00,
2013-05-26 13:35:00,64.7,38.5,29.87,ENE,68,0.0,0.0,38,0.00,,,-99.99,VWS V12.07,2013-05-26 18:35:00,
2013-05-26 13:40:00,64.9,38.7,29.86,South,180,0.0,0.0,38,0.00,,,-99.99,VWS V12.07,2013-05-26 18:40:00,
2013-05-26 13:50:00,65.1,38.2,29.86,South,180,0.0,0.0,37,0.00,,,-99.99,VWS V12.07,2013-05-26 18:50:00,
2013-05-26 13:55:00,65.3,38.4,29.86,NE,45,0.0,0.0,37,0.00,,,-99.99,VWS V12.07,2013-05-26 18:55:00,
2013-05-26 14:00:00,65.3,38.4,29.86,SE,135,0.0,0.0,37,0.00,,,-99.99,VWS V12.07,2013-05-26 19:00:00,
2013-05-26 14:05:00,65.4,38.5,29.86,SE,135,5.1,5.1,37,0.00,,,-99.99,VWS V12.07,2013-05-26 19:05:00,
2013-05-26 14:10:00,65.4,38.5,29.86,South,180,0.0,5.1,37,0.00,,,-99.99,VWS V12.07,2013-05-26 19:10:00,
2013-05-26 14:15:00,65.4,38.5,29.86,SE,135,2.6,5.1,37,0.00,,,-99.99,VWS V12.07,2013-05-26 19:15:00,
2013-05-26 14:20:00,65.4,37.8,29.86,SSW,202,0.0,2.6,36,0.00,,,-99.99,VWS V12.07,2013-05-26 19:20:00,
2013-05-26 14:25:00,65.4,37.8,29.86,South,180,0.0,2.6,36,0.00,,,-99.99,VWS V12.07,2013-05-26 19:25:00,
2013-05-26 14:30:00,65.4,37.8,29.85,SSW,202,0.0,7.6,36,0.00,,,-99.99,VWS V12.07,2013-05-26 19:30:00,
2013-05-26 14:35:00,65.6,38.0,29.85,SE,135,0.0,0.0,36,0.00,,,-99.99,VWS V12.07,2013-05-26 19:35:00,
2013-05-26 14:40:00,65.8,38.1,29.85,ESE,112,0.0,0.0,36,0.00,,,-99.99,VWS V12.07,2013-05-26 19:40:00,
2013-05-26 14:45:00,66.0,38.3,29.86,SSW,202,0.0,0.0,36,0.00,,,-99.99,VWS V12.07,2013-05-26 19:45:00,
2013-05-26 14:50:00,66.0,38.3,29.85,SSW,202,0.0,0.0,36,0.00,,,-99.99,VWS V12.07,2013-05-26 19:50:00,
2013-05-26 14:55:00,66.0,38.3,29.85,SSW,202,0.0,2.4,36,0.00,,,-99.99,VWS V12.07,2013-05-26 19:55:00,
2013-05-26 15:00:00,66.2,38.5,29.85,NE,45,0.0,2.4,36,0.00,,,-99.99,VWS V12.07,2013-05-26 20:00:00,
2013-05-26 15:05:00,66.2,38.5,29.84,NE,45,0.0,0.0,36,0.00,,,-99.99,VWS V12.07,2013-05-26 20:05:00,
2013-05-26 15:10:00,66.3,38.6,29.84,NE,45,0.0,0.0,36,0.00,,,-99.99,VWS V12.07,2013-05-26 20:10:00,
2013-05-26 15:15:00,66.3,38.6,29.84,SSW,202,0.0,0.0,36,0.00,,,-99.99,VWS V12.07,2013-05-26 20:15:00,
2013-05-26 15:20:00,66.3,38.6,29.84,NE,45,0.0,4.9,36,0.00,,,-99.99,VWS V12.07,2013-05-26 20:20:00,
2013-05-26 15:25:00,66.3,38.6,29.84,ENE,68,0.0,5.5,36,0.00,,,-99.99,VWS V12.07,2013-05-26 20:25:00,
2013-05-26 15:30:00,66.3,38.6,29.83,ENE,68,0.0,5.5,36,0.00,,,-99.99,VWS V12.07,2013-05-26 20:30:00,
2013-05-26 15:35:00,66.3,38.6,29.83,West,270,0.0,0.0,36,0.00,,,-99.99,VWS V12.07,2013-05-26 20:35:00,
2013-05-26 15:40:00,66.3,37.8,29.83,SSE,158,0.0,0.0,35,0.00,,,-99.99,VWS V12.07,2013-05-26 20:40:00,
2013-05-26 15:45:00,66.2,37.8,29.83,NE,45,1.3,5.5,35,0.00,,,-99.99,VWS V12.07,2013-05-26 20:45:00,
2013-05-26 15:50:00,66.0,37.6,29.83,NE,45,0.0,1.3,35,0.00,,,-99.99,VWS V12.07,2013-05-26 20:50:00,
2013-05-26 15:55:00,66.2,37.8,29.83,North,0,0.0,1.3,35,0.00,,,-99.99,VWS V12.07,2013-05-26 20:55:00,
2013-05-26 16:00:00,66.3,37.8,29.83,NE,45,0.0,1.3,35,0.00,,,-99.99,VWS V12.07,2013-05-26 21:00:00,
2013-05-26 16:05:00,66.2,37.8,29.83,SSE,158,0.0,0.0,35,0.00,,,-99.99,VWS V12.07,2013-05-26 21:05:00,
2013-05-26 16:10:00,66.2,37.8,29.83,ENE,68,0.0,0.0,35,0.00,,,-99.99,VWS V12.07,2013-05-26 21:10:00,
2013-05-26 16:15:00,66.3,37.8,29.83,ENE,68,0.0,0.0,35,0.00,,,-99.99,VWS V12.07,2013-05-26 21:15:00,
2013-05-26 16:20:00,66.0,37.6,29.83,SSW,202,0.0,0.0,35,0.00,,,-99.99,VWS V12.07,2013-05-26 21:20:00,
2013-05-26 16:25:00,66.2,38.5,29.82,NE,45,0.0,0.0,36,0.00,,,-99.99,VWS V12.07,2013-05-26 21:25:00,
2013-05-26 16:30:00,66.3,37.8,29.82,SSW,202,5.3,5.3,35,0.00,,,-99.99,VWS V12.07,2013-05-26 21:30:00,
2013-05-26 16:35:00,66.5,38.0,29.82,East,90,0.0,6.9,35,0.00,,,-99.99,VWS V12.07,2013-05-26 21:35:00,
2013-05-26 16:40:00,66.5,38.0,29.82,NE,45,0.0,6.9,35,0.00,,,-99.99,VWS V12.07,2013-05-26 21:40:00,
2013-05-26 16:45:00,66.3,37.8,29.82,SSW,202,0.0,6.9,35,0.00,,,-99.99,VWS V12.07,2013-05-26 21:45:00,
2013-05-26 16:50:00,66.3,37.8,29.82,SSE,158,0.0,0.0,35,0.00,,,-99.99,VWS V12.07,2013-05-26 21:50:00,
2013-05-26 16:55:00,66.2,37.8,29.82,ESE,112,0.0,0.0,35,0.00,,,-99.99,VWS V12.07,2013-05-26 21:55:00,
2013-05-26 17:00:00,66.0,37.6,29.82,SSW,202,0.0,0.0,35,0.00,,,-99.99,VWS V12.07,2013-05-26 22:00:00,
2013-05-26 17:05:00,66.2,37.8,29.82,SSW,202,0.0,0.0,35,0.00,,,-99.99,VWS V12.07,2013-05-26 22:05:00,
2013-05-26 17:10:00,66.3,37.8,29.81,SSW,202,0.0,0.0,35,0.00,,,-99.99,VWS V12.07,2013-05-26 22:10:00,
2013-05-26 17:15:00,66.7,38.2,29.81,WNW,292,0.0,0.0,35,0.00,,,-99.99,VWS V12.07,2013-05-26 22:15:00,
2013-05-26 17:20:00,66.7,38.2,29.81,NNE,22,6.0,6.0,35,0.00,,,-99.99,VWS V12.07,2013-05-26 22:20:00,
2013-05-26 17:25:00,66.9,37.7,29.81,SSE,158,0.0,6.0,34,0.00,,,-99.99,VWS V12.07,2013-05-26 22:25:00,
2013-05-26 17:30:00,66.9,37.7,29.81,NW,315,0.0,6.0,34,0.00,,,-99.99,VWS V12.07,2013-05-26 22:30:00,
2013-05-26 17:35:00,66.7,37.5,29.81,SW,225,0.0,0.0,34,0.00,,,-99.99,VWS V12.07,2013-05-26 22:35:00,
2013-05-26 17:40:00,66.7,37.5,29.81,SSE,158,0.0,0.0,34,0.00,,,-99.99,VWS V12.07,2013-05-26 22:40:00,
2013-05-26 17:45:00,66.5,37.3,29.80,South,180,0.0,0.0,34,0.00,,,-99.99,VWS V12.07,2013-05-26 22:45:00,
2013-05-26 17:50:00,66.5,37.3,29.81,SSW,202,0.0,0.0,34,0.00,,,-99.99,VWS V12.07,2013-05-26 22:50:00,
2013-05-26 17:55:00,66.2,37.0,29.80,West,270,0.0,0.0,34,0.00,,,-99.99,VWS V12.07,2013-05-26 22:55:00,
2013-05-26 18:00:00,66.0,36.8,29.80,SE,135,0.0,0.0,34,0.00,,,-99.99,VWS V12.07,2013-05-26 23:00:00,
2013-05-26 18:05:00,65.8,36.7,29.80,East,90,0.0,0.0,34,0.00,,,-99.99,VWS V12.07,2013-05-26 23:05:00,
2013-05-26 18:10:00,66.0,36.8,29.80,SSW,202,0.0,3.1,34,0.00,,,-99.99,VWS V12.07,2013-05-26 23:10:00,
2013-05-26 18:15:00,66.0,36.8,29.80,NE,45,0.0,3.1,34,0.00,,,-99.99,VWS V12.07,2013-05-26 23:15:00,
2013-05-26 18:20:00,66.5,37.3,29.80,NE,45,0.0,0.0,34,0.00,,,-99.99,VWS V12.07,2013-05-26 23:20:00,
2013-05-26 18:25:00,66.3,37.1,29.80,SSE,158,0.0,0.0,34,0.00,,,-99.99,VWS V12.07,2013-05-26 23:25:00,
2013-05-26 18:30:00,66.2,37.0,29.80,SSE,158,0.0,0.0,34,0.00,,,-99.99,VWS V12.07,2013-05-26 23:30:00,
2013-05-26 18:35:00,66.0,36.8,29.79,ESE,112,0.0,0.0,34,0.00,,,-99.99,VWS V12.07,2013-05-26 23:35:00,
2013-05-26 18:40:00,66.0,36.8,29.79,South,180,0.0,0.0,34,0.00,,,-99.99,VWS V12.07,2013-05-26 23:40:00,
2013-05-26 18:45:00,66.0,37.6,29.79,West,270,0.0,0.0,35,0.00,,,-99.99,VWS V12.07,2013-05-26 23:45:00,
2013-05-26 18:50:00,66.0,36.8,29.80,WSW,248,0.0,0.0,34,0.00,,,-99.99,VWS V12.07,2013-05-26 23:50:00,
2013-05-26 18:55:00,65.8,37.4,29.80,SSW,202,0.0,0.0,35,0.00,,,-99.99,VWS V12.07,2013-05-26 23:55:00,
2013-05-26 19:00:00,65.6,37.2,29.80,SSW,202,0.0,0.0,35,0.00,,,-99.99,VWS V12.07,2013-05-27 00:00:00,
2013-05-26 19:05:00,65.3,37.0,29.80,SSW,202,0.0,0.0,35,0.00,,,-99.99,VWS V12.07,2013-05-27 00:05:00,
2013-05-26 19:10:00,64.9,36.6,29.80,South,180,2.9,2.9,35,0.00,,,-99.99,VWS V12.07,2013-05-27 00:10:00,
2013-05-26 19:15:00,64.5,36.3,29.80,SSW,202,0.0,2.9,35,0.00,,,-99.99,VWS V12.07,2013-05-27 00:15:00,
2013-05-26 19:20:00,64.5,37.0,29.80,SSW,202,0.0,0.0,36,0.00,,,-99.99,VWS V12.07,2013-05-27 00:20:00,
2013-05-26 19:25:00,64.2,36.7,29.80,SSW,202,0.0,0.0,36,0.00,,,-99.99,VWS V12.07,2013-05-27 00:25:00,
2013-05-26 19:30:00,64.2,36.7,29.80,SSE,158,0.0,0.0,36,0.00,,,-99.99,VWS V12.07,2013-05-27 00:30:00,
2013-05-26 19:35:00,64.0,36.5,29.80,ESE,112,0.0,0.0,36,0.00,,,-99.99,VWS V12.07,2013-05-27 00:35:00,
2013-05-26 19:40:00,63.5,36.1,29.80,SE,135,0.0,0.0,36,0.00,,,-99.99,VWS V12.07,2013-05-27 00:40:00,
2013-05-26 19:45:00,63.3,35.9,29.80,SW,225,0.0,0.0,36,0.00,,,-99.99,VWS V12.07,2013-05-27 00:45:00,
2013-05-26 19:50:00,62.7,35.4,29.80,SW,225,0.0,0.0,36,0.00,,,-99.99,VWS V12.07,2013-05-27 00:50:00,
2013-05-26 19:55:00,62.0,34.8,29.80,NE,45,0.0,0.0,36,0.00,,,-99.99,VWS V12.07,2013-05-27 00:55:00,
2013-05-26 20:00:00,61.3,34.1,29.81,East,90,0.0,0.0,36,0.00,,,-99.99,VWS V12.07,2013-05-27 01:00:00,
2013-05-26 20:05:00,60.4,33.3,29.81,SW,225,0.0,0.0,36,0.00,,,-99.99,VWS V12.07,2013-05-27 01:05:00,
2013-05-26 20:10:00,59.7,33.4,29.81,SW,225,0.0,0.0,37,0.00,,,-99.99,VWS V12.07,2013-05-27 01:10:00,
2013-05-26 20:15:00,59.3,33.0,29.81,SW,225,0.0,0.0,37,0.00,,,-99.99,VWS V12.07,2013-05-27 01:15:00,
2013-05-26 20:20:00,58.8,32.6,29.81,SW,225,0.0,0.0,37,0.00,,,-99.99,VWS V12.07,2013-05-27 01:20:00,
2013-05-26 20:25:00,58.1,32.7,29.81,SW,225,0.0,0.0,38,0.00,,,-99.99,VWS V12.07,2013-05-27 01:25:00,
2013-05-26 20:35:00,57.0,31.7,29.81,SW,225,0.0,0.0,38,0.00,,,-99.99,VWS V12.07,2013-05-27 01:35:00,
2013-05-26 20:40:00,56.4,31.1,29.81,SW,225,0.0,0.0,38,0.00,,,-99.99,VWS V12.07,2013-05-27 01:40:00,
2013-05-26 20:45:00,55.9,31.3,29.81,SW,225,0.0,0.0,39,0.00,,,-99.99,VWS V12.07,2013-05-27 01:45:00,
2013-05-26 20:50:00,55.2,30.7,29.82,SW,225,0.0,0.0,39,0.00,,,-99.99,VWS V12.07,2013-05-27 01:50:00,
2013-05-26 20:55:00,55.0,31.1,29.82,SW,225,0.0,0.0,40,0.00,,,-99.99,VWS V12.07,2013-05-27 01:55:00,
2013-05-26 21:00:00,54.3,30.5,29.82,SW,225,0.0,0.0,40,0.00,,,-99.99,VWS V12.07,2013-05-27 02:00:00,
2013-05-26 21:05:00,53.7,30.0,29.83,SW,225,0.0,0.0,40,0.00,,,-99.99,VWS V12.07,2013-05-27 02:05:00,
2013-05-26 21:10:00,53.4,30.3,29.83,SW,225,0.0,0.0,41,0.00,,,-99.99,VWS V12.07,2013-05-27 02:10:00,
2013-05-26 21:15:00,53.2,30.1,29.83,SW,225,0.0,0.0,41,0.00,,,-99.99,VWS V12.07,2013-05-27 02:15:00,
2013-05-26 21:20:00,52.7,29.7,29.83,SW,225,0.0,0.0,41,0.00,,,-99.99,VWS V12.07,2013-05-27 02:20:00,
2013-05-26 21:25:00,52.3,29.9,29.83,SW,225,0.0,0.0,42,0.00,,,-99.99,VWS V12.07,2013-05-27 02:25:00,
2013-05-26 21:30:00,52.1,29.7,29.84,SW,225,0.0,0.0,42,0.00,,,-99.99,VWS V12.07,2013-05-27 02:30:00,
2013-05-26 21:35:00,51.8,29.5,29.83,SW,225,0.0,0.0,42,0.00,,,-99.99,VWS V12.07,2013-05-27 02:35:00,
2013-05-26 21:40:00,51.4,29.1,29.83,SW,225,0.0,0.0,42,0.00,,,-99.99,VWS V12.07,2013-05-27 02:40:00,
2013-05-26 21:45:00,51.0,29.3,29.83,SW,225,0.0,0.0,43,0.00,,,-99.99,VWS V12.07,2013-05-27 02:45:00,
2013-05-26 21:50:00,50.7,29.0,29.83,SW,225,0.0,0.0,43,0.00,,,-99.99,VWS V12.07,2013-05-27 02:50:00,
2013-05-26 21:55:00,50.5,28.9,29.83,SW,225,0.0,0.0,43,0.00,,,-99.99,VWS V12.07,2013-05-27 02:55:00,
2013-05-26 22:00:00,50.3,29.2,29.82,SW,225,0.0,0.0,44,0.00,,,-99.99,VWS V12.07,2013-05-27 03:00:00,
2013-05-26 22:10:00,49.8,28.8,29.82,SW,225,0.0,0.0,44,0.00,,,-99.99,VWS V12.07,2013-05-27 03:10:00,
2013-05-26 22:15:00,49.6,29.1,29.82,SW,225,0.0,0.0,45,0.00,,,-99.99,VWS V12.07,2013-05-27 03:15:00,
2013-05-26 22:20:00,49.4,29.0,29.82,SW,225,0.0,0.0,45,0.00,,,-99.99,VWS V12.07,2013-05-27 03:20:00,
2013-05-26 22:25:00,49.2,29.3,29.81,SW,225,0.0,0.0,46,0.00,,,-99.99,VWS V12.07,2013-05-27 03:25:00,
2013-05-26 22:30:00,49.2,29.3,29.82,SW,225,0.0,0.0,46,0.00,,,-99.99,VWS V12.07,2013-05-27 03:30:00,
2013-05-26 22:35:00,48.9,29.0,29.81,SW,225,0.0,0.0,46,0.00,,,-99.99,VWS V12.07,2013-05-27 03:35:00,
2013-05-26 22:40:00,48.9,29.6,29.81,SW,225,0.0,0.0,47,0.00,,,-99.99,VWS V12.07,2013-05-27 03:40:00,
2013-05-26 22:45:00,48.7,29.4,29.81,SW,225,0.0,0.0,47,0.00,,,-99.99,VWS V12.07,2013-05-27 03:45:00,
2013-05-26 22:50:00,48.5,29.2,29.81,SW,225,0.0,0.0,47,0.00,,,-99.99,VWS V12.07,2013-05-27 03:50:00,
2013-05-26 22:55:00,48.3,29.0,29.81,SW,225,0.0,0.0,47,0.00,,,-99.99,VWS V12.07,2013-05-27 03:55:00,
2013-05-26 23:00:00,48.3,29.0,29.81,SW,225,0.0,0.0,47,0.00,,,-99.99,VWS V12.07,2013-05-27 04:00:00,
2013-05-26 23:05:00,48.2,29.5,29.81,SW,225,0.0,0.0,48,0.00,,,-99.99,VWS V12.07,2013-05-27 04:05:00,
2013-05-26 23:10:00,48.0,29.3,29.80,SW,225,0.0,0.0,48,0.00,,,-99.99,VWS V12.07,2013-05-27 04:10:00,
2013-05-26 23:15:00,48.0,29.3,29.81,SW,225,0.0,0.0,48,0.00,,,-99.99,VWS V12.07,2013-05-27 04:15:00,
2013-05-26 23:20:00,47.8,29.6,29.81,SW,225,0.0,0.0,49,0.00,,,-99.99,VWS V12.07,2013-05-27 04:20:00,
2013-05-26 23:25:00,47.4,29.2,29.81,SW,225,0.0,0.0,49,0.00,,,-99.99,VWS V12.07,2013-05-27 04:25:00,
2013-05-26 23:30:00,47.4,29.7,29.81,SW,225,0.0,0.0,50,0.00,,,-99.99,VWS V12.07,2013-05-27 04:30:00,
2013-05-26 23:35:00,47.1,29.4,29.81,SW,225,0.0,0.0,50,0.00,,,-99.99,VWS V12.07,2013-05-27 04:35:00,
2013-05-26 23:40:00,46.9,29.7,29.81,SW,225,0.0,0.0,51,0.00,,,-99.99,VWS V12.07,2013-05-27 04:40:00,
2013-05-26 23:45:00,46.7,29.5,29.81,SW,225,0.0,0.0,51,0.00,,,-99.99,VWS V12.07,2013-05-27 04:45:00,
2013-05-26 23:50:00,46.5,29.8,29.81,SW,225,0.0,0.0,52,0.00,,,-99.99,VWS V12.07,2013-05-27 04:50:00,
2013-05-26 23:55:00,46.2,29.6,29.81,SW,225,0.0,0.0,52,0.00,,,-99.99,VWS V12.07,2013-05-27 04:55:00,